#timestamp,LO_Frequency,Hit,StdDev 
1559206815.2,286046975.2,Y
1559206835.9,286046988.4,P
1559206855.7,286046982.2,P
1559206875.6,286046985.1,P
1559206895.4,286046983.9,Y
1559206915.2,286046997.5,P
1559206935.1,286046996.5,N
1559206936.0,286046996.5,N
1559206955.8,286046997.3,N
1559206975.7,286046997.8,N
1559206995.5,286047003.2,N
1559207015.3,286047003.9,N
1559207035.2,286047004.9,N
1559207055.0,286047006.7,N
1559207055.9,286047006.7,N
1559207075.8,286047011.9,N
1559207095.6,286047009.8,N
1559207115.4,286047003.4,N
1559207135.3,286047002.9,N
1559207155.1,286047005.4,N
1559207175.9,286047005.6,N
1559207195.7,286047001.3,N
1559207215.5,286047001.1,N
1559207235.4,286046999.4,N
1559207255.2,286046998.1,N
1559207275.1,286046999.0,N
1559207276.0,286046999.0,N
1559207295.8,286046997.0,N
1559207315.6,286047000.3,N
1559207335.5,286046997.2,N
1559207355.3,286046998.1,N
1559207375.1,286047001.2,N
1559207395.9,286046993.2,N
1559207415.7,286046992.9,N
1559207435.6,286046995.3,N
1559207455.4,286046995.9,N
1559207475.2,286046992.1,N
1559207495.1,286046990.3,N
1559207496.0,286046990.3,N
1559207515.8,286046989.7,N
1559207535.7,286046985.4,N
1559207555.5,286046983.7,N
1559207575.3,286046986.4,N
1559207595.2,286046981.8,N
1559207615.0,286046972.5,Y
1559207615.9,286046972.5,P
1559207635.8,286046973.3,N
1559207655.6,286046981.5,N
1559207675.4,286046979.4,N
1559207695.3,286046974.2,N
1559207715.1,286046973.3,Y
1559207735.8,286046993.6,P
1559207755.7,286046992.9,N
1559207775.5,286046987.7,N
1559207795.4,286046994.4,N
1559207815.2,286046997.6,N
1559207835.0,286046997.5,N
1559207835.9,286046997.5,N
1559207855.8,286046997.6,N
1559207875.6,286046995.0,N
1559207895.4,286046995.9,N
1559207915.3,286046993.0,N
1559207935.1,286046989.5,N
1559207955.9,286046991.2,N
1559207975.7,286046991.1,N
1559207995.5,286046983.9,Y
1559208015.4,286046994.2,P
1559208035.2,286046991.7,P
1559208055.1,286046994.5,P
1559208056.0,286046994.5,Y
1559208075.8,286046996.6,P
1559208095.6,286047000.5,N
1559208115.5,286046998.9,N
1559208135.3,286046999.9,N
1559208155.1,286046995.5,N
1559208175.9,286046999.3,N
1559208195.7,286046997.4,N
1559208215.6,286046990.2,Y
1559208235.4,286046991.7,P
1559208255.2,286046990.9,P
1559208275.1,286046993.8,N
1559208276.0,286046993.8,N
1559208295.8,286046998.4,N
1559208315.7,286046996.9,N
1559208335.5,286046996.6,N
1559208355.3,286046997.4,N
1559208375.2,286046997.4,N
1559208395.0,286046993.8,N
1559208395.9,286046993.8,N
1559208415.8,286046990.2,Y
1559208435.6,286046995.5,P
1559208455.4,286046990.9,P
1559208475.3,286046992.8,P
1559208495.1,286046995.0,N
1559208515.8,286046999.1,N
1559208535.7,286047000.2,N
1559208555.5,286047001.9,N
1559208575.4,286047003.8,N
1559208595.2,286047007.0,N
1559208615.0,286047003.1,N
1559208615.9,286047003.1,N
1559208635.8,286047000.5,N
1559208655.6,286046993.6,N
1559208675.4,286046991.4,N
1559208695.3,286046989.1,N
1559208715.1,286046993.0,N
1559208735.9,286046991.1,N
1559208755.7,286046992.9,N
1559208775.5,286046988.2,N
1559208795.4,286046984.7,N
1559208815.2,286046986.3,N
1559208835.0,286046984.3,N
1559208836.0,286046984.3,N
1559208855.8,286046981.2,N
1559208875.6,286046979.3,Y
1559208895.5,286046986.8,P
1559208915.3,286046981.0,P
1559208935.1,286046976.7,P
1559208955.9,286046976.9,Y
1559208975.7,286046992.1,P
1559208995.6,286046997.8,N
1559209015.4,286046998.7,N
1559209035.2,286047002.4,N
1559209055.1,286047000.8,N
1559209056.0,286047000.8,N
1559209075.8,286047000.4,N
1559209095.6,286046998.9,N
1559209115.5,286046995.6,N
1559209135.3,286046994.9,N
1559209155.2,286046992.6,N
1559209175.9,286046988.9,N
1559209195.8,286046989.8,N
1559209215.6,286046991.1,N
1559209235.4,286046988.1,N
1559209255.3,286046986.3,N
1559209275.1,286046984.4,N
1559209295.9,286046978.4,Y
1559209315.7,286046984.4,P
1559209335.5,286046982.1,P
1559209355.4,286046980.4,P
1559209375.2,286046972.6,Y
1559209395.0,286046990.1,P
1559209396.0,286046990.1,P
1559209415.8,286046991.7,P
1559209435.6,286046993.2,N
1559209455.5,286046987.7,Y
1559209475.3,286046993.0,P
1559209495.1,286046987.3,P
1559209515.9,286046984.2,P
1559209535.7,286046980.5,Y
1559209555.6,286046991.6,P
1559209575.4,286046987.5,P
1559209595.2,286046992.8,P
1559209615.1,286046993.5,Y
1559209616.0,286046993.5,P
1559209635.8,286047006.3,P
1559209655.7,286047004.6,N
1559209675.5,286047005.1,N
1559209695.3,286047008.9,N
1559209715.2,286047010.7,N
1559209735.0,286047009.9,N
1559209735.9,286047009.9,N
1559209755.7,286047010.1,N
1559209775.6,286047012.0,N
1559209795.4,286047010.4,N
1559209815.3,286047009.2,N
1559209835.1,286047008.1,N
1559209855.8,286047009.3,N
1559209875.7,286047011.1,N
1559209895.5,286047012.2,N
1559209915.4,286047012.1,N
1559209935.2,286047006.1,N
1559209955.0,286047010.7,N
1559209955.9,286047010.7,N
1559209975.8,286047006.7,N
1559209995.6,286047005.9,N
1559210015.4,286046997.8,N
1559210035.3,286046994.4,N
1559210055.1,286046985.4,N
1559210075.9,286046984.4,N
1559210095.7,286046990.0,N
1559210115.5,286046985.3,N
1559210135.4,286046985.3,N
1559210155.2,286046990.0,N
1559210175.1,286046988.8,N
1559210176.0,286046988.8,N
1559210195.8,286046986.6,N
1559210215.6,286046979.6,N
1559210235.5,286046981.4,N
1559210255.3,286046975.0,N
1559210275.2,286046970.8,N
1559210295.0,286046962.0,N
1559210295.9,286046962.0,N
1559210315.7,286046964.5,N
1559210335.6,286046972.3,N
1559210355.4,286046963.1,N
1559210375.3,286046956.7,N
1559210395.1,286046955.2,N
